User: anonymous   Login
Location: Caltech
(34.1382°N, 118.1253°W)
Time: 10:54:38
(UTC-07:00)
Language:

Oscar 19 - Orbit

View from above orbital plane
View from above orbital plane
View from above satellite
View from above satellite

Ground track
Ground track

The orbit data is extracted from the following two-line orbital elements,

1 20442U 90005G   15216.39046281  .00000061  00000-0  38266-4 0  9990
2 20442 098.5123 151.2931 0012078 011.9005 348.2462 14.32751459333849
Epoch (UTC): 04 August 2015 09:22:15
Eccentricity: 0.0012078
inclination: 98.5123°
perigee height: 774 km
apogee height: 791 km
right ascension of ascending node: 151.2931°
argument of perigee: 11.9005°
revolutions per day: 14.32751459
mean anomaly at epoch: 348.2462°
orbit number at epoch: 33384

The dashed part of the orbit path shows where the satellite is in the earth's shadow,  

DLR